Weather History for Jackson, WY

Change the Weather History Date:

Saturday, February 4, 2012

  Actual Average Record
Temperature  
Mean Temperature 4 °F -  
Max Temperature 15 °F 26 °F 89 °F (2007)
Min Temperature -7 °F -3 °F -36 °F (1985)
Degree Days  
Heating Degree Days 61    
Moisture  
Dew Point -4 °F    
Average Humidity 80    
Maximum Humidity 100    
Minimum Humidity 55    
Precipitation  
Precipitation 0.00 in - - ()
Sea Level Pressure  
Sea Level Pressure 30.36 in    
Wind  
Wind Speed 6 mph (NNE)    
Max Wind Speed 14 mph    
Max Gust Speed -    
Visibility 10 miles    
Events      
Averages and records for this station are not official NWS values.
T = Trace of Precipitation, MM = Missing Value Source: NWS Daily Summary

Daily Weather History Graph

Daily Weather History Graph

Search for Another Location

Airport:

Trip Planner

Search our weather history database for the weather conditions in past years. The results will help you decide how hot, cold, wet, or windy it might be!

Date:

Astronomy

Feb. 04, 2012 Rise Set
Actual Time 7:36 AM MST 5:37 PM MST
Civil Twilight 7:06 AM MST 6:08 PM MST
Nautical Twilight 6:32 AM MST 6:42 PM MST
Astronomical Twilight 5:58 AM MST 7:15 PM MST
Moon 2:35 PM MST (2/4) 5:08 AM MST (2/4)
Length of Visible Light 11h 01m
Length of Day
10h 01m
Waxing Gibbous, 89% of the Moon is Illuminated
Feb 4
Waxing Gibbous
Feb 7
Full
Feb 14
Last Quarter
Feb 21
New
Feb 29
First Quarter

Hourly Weather History & Observations

Time (MST) Temp. Windchill Dew Point Humidity Pressure Visibility Wind Dir Wind Speed Gust Speed Precip Events Conditions
12:15 AM 3.2 °F - -0.4 °F 85% 30.35 in 10.0 mi Calm Calm - N/A   Clear
12:55 AM 1.4 °F -8.3 °F -2.2 °F 85% 30.35 in 10.0 mi NNE 4.6 mph - N/A   Clear
1:15 AM 3.2 °F -9.1 °F 1.4 °F 92% 30.36 in 10.0 mi North 6.9 mph - N/A   Clear
1:35 AM -0.4 °F -16.7 °F -5.8 °F 78% 30.36 in 10.0 mi NNE 10.4 mph - N/A   Clear
1:55 AM 1.4 °F -14.5 °F -2.2 °F 85% 30.36 in 10.0 mi NNE 10.4 mph - N/A   Clear
2:15 AM -0.4 °F -14.7 °F -2.2 °F 92% 30.37 in 10.0 mi North 8.1 mph - N/A   Clear
2:35 AM -0.4 °F -14.7 °F -5.8 °F 78% 30.37 in 10.0 mi North 8.1 mph - N/A   Clear
2:55 AM -0.4 °F -10.4 °F -5.8 °F 78% 30.37 in 10.0 mi North 4.6 mph - N/A   Clear
3:35 AM -2.2 °F -19.9 °F -9.4 °F 71% 30.36 in 10.0 mi North 11.5 mph - N/A   Clear
3:55 AM -0.4 °F -14.7 °F -2.2 °F 92% 30.37 in 10.0 mi North 8.1 mph - N/A   Clear
4:15 AM -4.0 °F -20.2 °F -9.4 °F 78% 30.37 in 10.0 mi North 9.2 mph - N/A   Clear
4:35 AM -2.2 °F -21.5 °F -9.4 °F 71% 30.37 in 10.0 mi North 13.8 mph - N/A   Clear
4:55 AM -2.2 °F -15.6 °F -5.8 °F 85% 30.37 in 10.0 mi North 6.9 mph - N/A   Clear
5:15 AM -2.2 °F - -4.0 °F 92% 30.37 in 10.0 mi Calm Calm - N/A   Clear
5:55 AM -5.8 °F -18.4 °F -13.0 °F 71% 30.38 in 10.0 mi North 5.8 mph - N/A   Clear
6:15 AM -5.8 °F -16.7 °F -7.6 °F 92% 30.38 in 10.0 mi North 4.6 mph - N/A   Clear
6:35 AM -7.6 °F -22.1 °F -14.8 °F 71% 30.39 in 10.0 mi North 6.9 mph - N/A   Clear
6:51 AM -4.0 °F -14.6 °F -4.0 °F 100% 30.39 in 10.0 mi North 4.6 mph - N/A   Clear
7:51 AM -4.0 °F -20.2 °F -5.8 °F 92% 30.41 in 10.0 mi NNW 9.2 mph - N/A   Clear
8:52 AM -5.8 °F -18.4 °F -7.6 °F 92% 30.42 in 10.0 mi North 5.8 mph - N/A   Clear
9:58 AM -0.4 °F -10.4 °F -5.8 °F 78% 30.42 in 10.0 mi North 4.6 mph - N/A   Clear
10:51 AM 1.4 °F - -2.2 °F 85% 30.43 in 10.0 mi Calm Calm - N/A   Clear
11:51 AM 6.8 °F -0.1 °F 3.2 °F 85% 30.40 in 10.0 mi South 3.5 mph - N/A   Clear
12:56 PM 8.6 °F -1.3 °F -0.4 °F 67% 30.37 in 10.0 mi SE 5.8 mph - N/A   Clear
1:51 PM 10.4 °F 2.2 °F 3.2 °F 73% 30.35 in 10.0 mi SE 4.6 mph - N/A   Clear
2:57 PM 14.0 °F - 6.8 °F 73% 30.33 in 10.0 mi Calm Calm - N/A   Clear
3:51 PM 15.8 °F - 6.8 °F 68% 30.33 in 10.0 mi Calm Calm - N/A   Clear
4:55 PM 12.2 °F - 3.2 °F 67% 30.32 in 10.0 mi Calm Calm - N/A   Clear
5:55 PM 10.4 °F 4.0 °F 3.2 °F 73% 30.32 in 10.0 mi NE 3.5 mph - N/A   Clear
6:51 PM 6.8 °F -0.1 °F 3.2 °F 85% 30.33 in 10.0 mi North 3.5 mph - N/A   Clear
8:53 PM -2.2 °F -18.9 °F -14.8 °F 55% 30.33 in 10.0 mi North 10.4 mph - N/A   Clear
9:15 PM -4.0 °F -20.2 °F -9.4 °F 78% 30.33 in 10.0 mi North 9.2 mph - N/A   Clear
9:35 PM -0.4 °F -13.4 °F -2.2 °F 92% 30.34 in 10.0 mi NNE 6.9 mph - N/A   Clear
10:15 PM -0.4 °F -15.7 °F -7.6 °F 72% 30.34 in 10.0 mi North 9.2 mph - N/A   Clear
10:35 PM -0.4 °F -15.7 °F -9.4 °F 66% 30.35 in 10.0 mi NNE 9.2 mph - N/A   Clear
10:56 PM -4.0 °F -17.8 °F -11.2 °F 71% 30.34 in 10.0 mi North 6.9 mph - N/A   Clear
11:15 PM -4.0 °F -16.3 °F -7.6 °F 85% 30.34 in 10.0 mi NE 5.8 mph - N/A   Clear
11:35 PM -5.8 °F -16.7 °F -9.4 °F 84% 30.34 in 10.0 mi North 4.6 mph - N/A   Clear
11:55 PM -5.8 °F -19.9 °F -7.6 °F 92% 30.35 in 10.0 mi NNE 6.9 mph - N/A   Clear